Simultaneous Nadir Overpasses (SNOs) Predictions

Prediction of SNOs between METOP-A and NOAA-19 Satellite Orbit:

Table of predicted SNOs for the next 14.0 days since TLE Epoch: 2/1/2019
Index Date (METOP-A) Time (METOP-A) Lat,Lon (METOP-A) SZA (METOP-A ) Date (NOAA-19) Time (NOAA-19) Lat,Lon (NOAA-19) SZA (NOAA-19 ) Distance(km) Time Diff (sec)
1 02/05/2019 04:51:17 -79.35, -61.73 84.61 02/05/2019 04:50:12 -79.32, -61.81 84.65 3.69 65
2 02/05/2019 05:41:58 79.33, 105.43 95.36 02/05/2019 05:41:09 79.33, 105.34 95.36 2.03 49
3 02/05/2019 06:32:39 -79.33, -87.23 84.66 02/05/2019 06:32:13 -79.32, -87.32 84.67 2.03 26
4 02/05/2019 07:23:20 79.31, 79.93 95.31 02/05/2019 07:23:09 79.31, 80.10 95.31 3.39 11
5 02/05/2019 08:14:01 -79.31,-112.73 84.70 02/05/2019 08:14:14 -79.32,-112.83 84.69 2.80 13
6 02/05/2019 09:04:41 79.32, 54.69 95.30 02/05/2019 09:05:10 79.31, 54.58 95.29 2.72 29
7 02/05/2019 09:55:23 -79.29,-138.23 84.75 02/05/2019 09:56:14 -79.29,-138.08 84.73 3.25 51
8 02/05/2019 10:46:03 79.30, 29.19 95.26 02/05/2019 10:47:11 79.31, 29.06 95.27 2.97 68




NCC Satellite Simultaneous Nadir Overpasses (SNOs) Prediction Service
